Tracking 18980 objects as of 21-Feb-2018
HD Live streaming from Space Station
objects crossing your sky now

FENGYUN 1C DEB

Track FENGYUN 1C DEB now!
10-day predictions


NORAD ID: 33646
Int'l Code: 1999-025DEF
Perigee: 836.8 km
Apogee: 1,020.8 km
Inclination: 98.6 °
Period: 103.4 minutes
Semi major axis: 7299 km
RCS: 0.0171 m2 (small)
Launch date: May 10, 1999
Source: People's Republic of China (PRC)
Launch site: Taiyaun Space Center, China (TSC)

Note: This is SATELLITE DEBRIS
aabbcc
Your satellite tracking list
Your tracking list is empty




NASA's NSSDC Master Catalog

Two Line Element Set (TLE):
1 33646U 99025DEF 18050.04367078  .00000583  00000-0  45646-3 0  9990
2 33646  98.5973 129.5163 0126023 168.3123 315.0738 13.91999277529066
Source of the keplerian elements: AFSPC